Flag Weather past 2 weeks in Fort Worth, Texas, U.S.A.

Now
47 °F

Clear.


Feels Like: 46 °F
Forecast: 43 / 64 °F
Wind: 3 mph from Southeast

Location: Meacham International Airport

Current Time: Nov 25, 2014 at 11:16:45 PM

Latest Report: Nov 25, 2014 at 10:53 PM


Visibility: 10 mi

Pressure: 30.11 "Hg

Humidity: 52%

Dew point: 30 °F

Location of Fort WorthLocation

Historic Weather in Fort Worth — Graph

°F

Fort Worth temperature yesterday

Maximum temperature yesterday: 61 °F (at 2:53 PM)
Minimum temperature yesterday: 43 °F (at 6:53 AM)
Average temperature yesterday: 50 °F

Past Weeks' High & Low Weather Summary

 TemperatureHumidityPressure
High78 °F (Nov 23, 1:53 PM)97% (Nov 22, 10:53 AM)30.62 "Hg (Nov 22, 10:53 AM)
Low27 °F (Nov 14, 2:53 AM)17% (Nov 18, 3:53 PM)29.37 "Hg (Nov 23, 1:53 PM)
Average47 °F59%30.15 "Hg
* Reported Nov 10 9:53 PM — Nov 25 9:53 PM, Fort Worth, Weather by CustomWeather, © 2014

Note: Actual official high and low records may vary slightly from our data, if they occured in-between our weather recording intervals... More about our weather records

Advertising

Fort Worth weather history for previous 24 hours

 ConditionsComfort  
Time TempWeatherWind HumidityBarometerVisibility
9:53 PM
Nov 25
47 °FClear.5 mph52%30.14 "Hg10 mi
8:53 PM48 °FClear.No wind52%30.13 "Hg9 mi
7:53 PM51 °FClear.5 mph44%30.14 "Hg10 mi
6:53 PM54 °FClear.5 mph38%30.16 "Hg10 mi
5:53 PM56 °FClear.3 mph34%30.16 "Hg10 mi
4:53 PM59 °FSunny.9 mph32%30.16 "Hg10 mi
3:53 PM61 °FSunny.10 mph30%30.16 "Hg10 mi
2:53 PM62 °FSunny.9 mph30%30.17 "Hg10 mi
1:53 PM61 °FSunny.6 mph31%30.19 "Hg10 mi
12:53 PM61 °FSunny.12 mph32%30.23 "Hg10 mi
11:53 AM59 °FSunny.8 mph35%30.26 "Hg10 mi
10:53 AM56 °FSunny.7 mph39%30.30 "Hg10 mi
9:53 AM51 °FSunny.3 mph50%30.30 "Hg10 mi
8:53 AM45 °FSunny.3 mph63%30.29 "Hg10 mi
7:53 AM39 °FSunny.3 mph67%30.29 "Hg10 mi
6:53 AM39 °FClear.No wind67%30.26 "Hg10 mi
5:53 AM41 °FClear.No wind62%30.22 "Hg10 mi
4:53 AM40 °FClear.3 mph68%30.19 "Hg9 mi
3:53 AM43 °FClear.5 mph58%30.18 "Hg5 mi
2:53 AM42 °FClear.No wind60%30.18 "Hg10 mi
1:53 AM44 °FClear.5 mph51%30.18 "Hg10 mi
12:53 AM43 °FClear.5 mph68%30.17 "Hg8 mi
11:53 PM
Nov 24
43 °FClear.3 mph68%30.16 "Hg10 mi
Weather by CustomWeather, © 2014

See weather overviewHow to use our weather pages